Printer-friendly version

IAU Minor Planet Center

Minor Planet Center

MPEC 2005-V80 : 2005 VB7

The following Minor Planet Electronic Circular may be linked-to from your own Web pages, but must not otherwise be redistributed electronically.

A form allowing access to any MPEC is at the bottom of this page.


Read MPEC 2005-V79 Read MPEC 2005-V81


M.P.E.C. 2005-V80                                Issued 2005 Nov. 13, 17:32 UT

     The Minor Planet Electronic Circulars contain information on unusual
         minor planets and routine data on comets.  They are published
   on behalf of Commission 20 of the International Astronomical Union by the
          Minor Planet Center, Smithsonian Astrophysical Observatory,
                          Cambridge, MA 02138, U.S.A.

                  Supported in part by the Brinson Foundation
                  Supported in part by the TABASGO Foundation
             Prepared using the Tamkin Foundation Computer Network

                              MPC@CFA.HARVARD.EDU
          URL http://cfa-www.harvard.edu/iau/mpc.html  ISSN 1523-6714

                                   2005 VB7

Observations:
     K05V07B* C2005 11 12.20080 01 01 33.25 +45 59 38.0          18.3   EV080704
     K05V07B  C2005 11 12.22591 01 01 33.80 +45 57 45.6          19.4   EV080704
     K05V07B  C2005 11 12.23871 01 01 34.12 +45 56 49.8          19.2   EV080704
     K05V07B  C2005 11 12.25236 01 01 34.44 +45 55 47.9          19.3   EV080704
     K05V07B  C2005 11 12.95713 01 02 01.67 +45 02 32.7                 EV080J95
     K05V07B  C2005 11 12.95899 01 02 01.76 +45 02 24.2                 EV080J95
     K05V07B  C2005 11 12.96086 01 02 01.85 +45 02 15.9          18.8 R EV080J95
     K05V07B  C2005 11 13.14990 01 02 09.99 +44 47 53.9          19.3 R EV080H36
     K05V07B  C2005 11 13.15529 01 02 10.16 +44 47 26.1          19.3 R EV080H36
     K05V07B  C2005 11 13.16047 01 02 10.44 +44 47 03.3          18.9 R EV080H36
     K05V07B  C2005 11 13.21493 01 02 12.65 +44 42 54.0          19.2 R EV080673
     K05V07B  C2005 11 13.22083 01 02 12.81 +44 42 26.8                 EV080673
     K05V07B  C2005 11 13.22720 01 02 13.00 +44 41 57.2                 EV080673
     K05V07B  C2005 11 13.22876 01 02 12.89 +44 41 50.4          18.8 R EV080854
     K05V07B  C2005 11 13.23090 01 02 13.11 +44 41 40.1                 EV080673
     K05V07B  C2005 11 13.23165 01 02 12.85 +44 41 36.6          18.7 R EV080854
     K05V07B  C2005 11 13.23454 01 02 13.06 +44 41 23.9          18.7 R EV080854

Observer details:
673 Table Mountain Observatory, Wrightwood.  Observer J. Young.  0.6-m f/16
    Cassegrain + CCD.
704 Lincoln Laboratory ETS, New Mexico.  Observers M. Bezpalko, L. Manguso,
    D. Torres, R. Kracke, A. Milner, H. Love.  Measurers J. Stuart, R. Sayer,
    J. Evans, J. Kommers.  1.0-m f/2.15 reflector + CCD.
854 Sabino Canyon Observatory, Tucson.  Observer J. E. McGaha.  0.36-m f/10.0
    Schmidt-Cassegrain + CCD.
H36 Sandlot Observatory, Scranton.  Observer G. Hug.  0.30-m
    Schmidt-Cassegrain + CCD.
J95 Great Shefford.  Observer P. Birtwhistle.  0.40-m f/6.0 Schmidt-Cassegrain
    + CCD.

Orbital elements:
2005 VB7
Epoch 2005 Nov. 6.0 TT = JDT 2453680.5                  MPC
M 334.04502              (2000.0)            P               Q
n   0.39534473     Peri.  211.68130     +0.02166455     -0.87712531
a   1.8385922      Node   241.37355     +0.99282921     +0.07530460
e   0.3569054      Incl.   33.13314     +0.11756190     -0.47432100
P   2.49           H   19.6           G   0.15
From 17 observations 2005 Nov. 12-13.

Ephemeris:
2005 VB7                 a,e,i = 1.84, 0.36, 33                  q = 1.1824
Date    TT    R. A. (2000) Decl.     Delta      r     Elong.  Phase     V
2005 11 06    00 59.06   +52 46.4    0.414    1.327   137.7    30.2    19.6
2005 11 16    01 04.35   +40 57.7    0.355    1.290   142.6    27.7    19.1
2005 11 26    01 15.77   +25 05.3    0.327    1.256   140.5    29.9    19.0
2005 12 06    01 31.85   +08 11.0    0.334    1.229   130.4    37.7    19.2
2005 12 16    01 51.09   -05 54.3    0.374    1.207   118.3    45.9    19.6
2005 12 26    02 12.19   -15 52.6    0.433    1.192   108.2    51.6    20.1
2006 01 05    02 34.47   -22 24.0    0.501    1.184   100.7    54.7    20.5
2006 01 15    02 57.62   -26 31.0    0.571    1.183    95.4    55.9    20.8
2006 01 25    03 21.50   -29 00.3    0.639    1.190    91.8    55.8    21.0
2006 02 04    03 46.26   -30 21.0    0.702    1.204    89.4    54.9    21.2
2006 02 14    04 12.05   -30 52.4    0.760    1.225    88.0    53.6    21.4
2006 02 24    04 39.00   -30 46.0    0.813    1.253    87.4    52.1    21.6
2006 03 06    05 07.27   -30 09.1    0.862    1.285    87.5    50.5    21.7
2006 03 16    05 36.85   -29 08.2    0.908    1.322    87.9    48.8    21.8
2006 03 26    06 07.58   -27 47.9    0.955    1.362    88.5    47.1    21.9

Brian G. Marsden             (C) Copyright 2005 MPC           M.P.E.C. 2005-V80

Read MPEC 2005-V79 Read MPEC 2005-V81


MPEC number:

Enter an
MPEC number in one of the following forms:
  • 1997-B01 (the full form)
  • J97B01 (the packed version of the full form)
  • B01 (the abbreviated form)

Valid HTML 4.01!